This is the latest recevied weather packets stored in our database for station/object KC1OEK-13. If no packets are shown the sender has not sent any weather packets the latest 1 day(s).
| Time | Temp. | Humidity | Pressure | Rain* | Wind** | Luminosity | Snow |
|---|---|---|---|---|---|---|---|
| 1778048627 | 14.44° C | 83% | 1011.5 hPa | 0 mm | - | 0 W/m² | - |
| 1778048323 | 14.44° C | 82% | 1011.8 hPa | 0 mm | - | 0 W/m² | - |
| 1778047718 | 15° C | 81% | 1011.8 hPa | 0 mm | - | 0 W/m² | - |
| 1778047112 | 15.56° C | 79% | 1011.8 hPa | 0 mm | - | 0 W/m² | - |
| 1778046809 | 15.56° C | 79% | 1011.9 hPa | 0 mm | - | 0 W/m² | - |
| 1778046506 | 15.56° C | 78% | 1011.7 hPa | 0 mm | - | 0 W/m² | - |
| 1778045899 | 15.56° C | 78% | 1011.9 hPa | 0 mm | - | 0 W/m² | - |
| 1778045598 | 15.56° C | 77% | 1012 hPa | 0 mm | - | 0 W/m² | - |
| 1778045296 | 16.11° C | 77% | 1012 hPa | 0 mm | - | 0 W/m² | - |
| 1778044994 | 16.11° C | 76% | 1012.1 hPa | 0 mm | - | 0 W/m² | - |
| 1778044691 | 16.11° C | 76% | 1012.1 hPa | 0 mm | - | 0 W/m² | - |
| 1778043175 | 16.67° C | 74% | 1012.3 hPa | 0 mm | - | 0 W/m² | - |
| 1778042872 | 16.67° C | 74% | 1012.4 hPa | 0 mm | - | 0 W/m² | - |
| 1778042570 | 16.67° C | 74% | 1012.3 hPa | 0 mm | - | 0 W/m² | - |
| 1778042267 | 16.67° C | 74% | 1012.2 hPa | 0 mm | - | 0 W/m² | - |
| 1778041663 | 16.67° C | 72% | 1012.2 hPa | 0 mm | - | 0 W/m² | - |
| 1778041362 | 17.22° C | 72% | 1012.3 hPa | 0 mm | - | 0 W/m² | - |
| 1778041060 | 17.22° C | 71% | 1012.3 hPa | 0 mm | - | 0 W/m² | - |
| 1778040756 | 17.22° C | 71% | 1012.3 hPa | 0 mm | - | 0 W/m² | - |
| 1778040454 | 17.22° C | 71% | 1012.2 hPa | 0 mm | - | 0 W/m² | - |
| 1778040151 | 17.22° C | 70% | 1012.2 hPa | 0 mm | - | 0 W/m² | - |
| 1778039847 | 17.78° C | 70% | 1012.3 hPa | 0 mm | - | 0 W/m² | - |
| 1778039544 | 17.22° C | 70% | 1012.3 hPa | 0 mm | - | 0 W/m² | - |
| 1778039241 | 17.78° C | 70% | 1012.3 hPa | 0 mm | - | 0 W/m² | - |
| 1778038636 | 16.67° C | 71% | 1012.2 hPa | 0 mm | - | 0 W/m² | - |
* Rain latest hour (hover to see other rain measurements)
** Current wind speed in m/s (hover to see current wind gust speed)